Location: Ripley
(48.3812°N, 115.4473°W)
Time: 18:08:58
(UTC+00:00)

CAS-6 - Pass Details

Date: 30 June 2022
Orbit: 613 x 634 km, 97.9° (Epoch: 19 August)

Event Time Altitude Azimuth Distance (km) Brightness Sun altitude
Exits shadow 05:07:55 13° 129° (SE) 1,799 ? -10.2°
Maximum altitude 05:11:19 35° 68° (ENE) 1,019 ? -10.6°
Drops below altitude 10° 05:15:17 10° 3° (N) 2,006 ? -11.0°
Sets 05:17:36 0° 354° (N) 2,914 ? -11.2°
